Tracking 29090 objects as of 15-Jul-2024
HD Live streaming from Space Station
objects crossing your sky now

STARLINK-30175

Track STARLINK-30175 now!
10-day predictions
STARLINK-30175 is classified as:


NORAD ID: 57311
Int'l Code: 2023-096X
Perigee: 565.2 km
Apogee: 567.2 km
Inclination: 43.0 °
Period: 95.8 minutes
Semi major axis: 6937 km
RCS: Unknown
Launch date: July 10, 2023
Source: United States (US)
Launch site: AIR FORCE EASTERN TEST RANGE (AFETR)
Your satellite tracking list
Your tracking list is empty




NASA's NSSDC Master Catalog

Two Line Element Set (TLE):
1 57311U 23096X   24196.87971785  .00002048  00000-0  16665-3 0  9992
2 57311  43.0010 258.2722 0001395 280.0940  79.9745 15.02538584 55952
Source of the keplerian elements: AFSPC